| time (UTC) | temp F | wind direction | speed MPH | gust MPH | rain 1hr in | rain 24hr in | rain mn in | humidity % | barometer mb |
| 20260509160600 | 59 | 185 | 4.0 | 11.0 | 0.00 | 0.00 | 0.00 | 74 | 1006.3 |
| 20260509160502 | 59 | 209 | 5.0 | 11.0 | 0.00 | 0.00 | 0.00 | 73 | 1006.3 |
| 20260509160021 | 59 | 182 | 3.0 | 11.0 | 0.00 | 0.00 | 0.00 | 73 | 1006.3 |
| 20260509155557 | 59 | 185 | 1.0 | 7.0 | 0.00 | 0.00 | 0.00 | 74 | 1006.3 |
| 20260509155103 | 59 | 222 | 1.0 | 7.0 | 0.00 | 0.00 | 0.00 | 74 | 1006.3 |
| 20260509154605 | 60 | 218 | 3.0 | 7.0 | 0.00 | 0.00 | 0.00 | 72 | 1006.3 |
| 20260509154100 | 60 | 179 | 2.0 | 9.0 | 0.00 | 0.00 | 0.00 | 74 | 1006.3 |
| 20260509153506 | 60 | 190 | 2.0 | 9.0 | 0.00 | 0.00 | 0.00 | 75 | 1006.3 |
| 20260509153016 | 59 | 128 | 2.0 | 8.0 | 0.00 | 0.00 | 0.00 | 76 | 1006.3 |
| 20260509152522 | 58 | 177 | 2.0 | 10.0 | 0.00 | 0.00 | 0.00 | 76 | 1006.2 |
| 20260509152006 | 58 | 217 | 4.0 | 10.0 | 0.00 | 0.00 | 0.00 | 77 | 1006.3 |
| 20260509151521 | 58 | 201 | 1.0 | 12.0 | 0.00 | 0.00 | 0.00 | 78 | 1006.3 |
| 20260509151002 | 58 | 182 | 4.0 | 14.0 | 0.00 | 0.00 | 0.00 | 76 | 1006.4 |
| 20260509150520 | 58 | 181 | 5.0 | 10.0 | 0.00 | 0.00 | 0.00 | 75 | 1006.5 |
| 20260509150026 | 59 | 156 | 3.0 | 10.0 | 0.00 | 0.00 | 0.00 | 77 | 1006.4 |
| 20260509145509 | 58 | 146 | 4.0 | 12.0 | 0.00 | 0.00 | 0.00 | 78 | 1006.5 |
| 20260509145006 | 58 | 204 | 4.0 | 10.0 | 0.00 | 0.00 | 0.00 | 77 | 1006.5 |
| 20260509144518 | 58 | 212 | 3.0 | 10.0 | 0.00 | 0.00 | 0.00 | 79 | 1006.5 |
| 20260509144031 | 58 | 211 | 2.0 | 7.0 | 0.00 | 0.00 | 0.00 | 78 | 1006.5 |
| 20260509143534 | 57 | 186 | 1.0 | 11.0 | 0.00 | 0.00 | 0.00 | 80 | 1006.4 |
| 20260509143048 | 57 | 187 | 3.0 | 11.0 | 0.00 | 0.00 | 0.00 | 80 | 1006.3 |
| 20260509142545 | 57 | 236 | 4.0 | 15.0 | 0.00 | 0.00 | 0.00 | 79 | 1006.4 |
| 20260509142054 | 57 | 252 | 5.0 | 9.0 | 0.00 | 0.00 | 0.00 | 78 | 1006.5 |
| 20260509141510 | 57 | 148 | 2.0 | 9.0 | 0.00 | 0.00 | 0.00 | 80 | 1006.4 |
| 20260509141003 | 56 | 170 | 3.0 | 9.0 | 0.00 | 0.00 | 0.00 | 79 | 1006.4 |
| 20260509140550 | 56 | 196 | 2.0 | 7.0 | 0.00 | 0.00 | 0.00 | 80 | 1006.4 |
| 20260509140044 | 56 | 204 | 3.0 | 6.0 | 0.00 | 0.00 | 0.00 | 80 | 1006.4 |
| 20260509135554 | 56 | 178 | 1.0 | 7.0 | 0.00 | 0.00 | 0.00 | 81 | 1006.5 |
| 20260509135059 | 55 | 186 | 0.0 | 15.0 | 0.00 | 0.00 | 0.00 | 81 | 1006.4 |
| 20260509134508 | 56 | 189 | 5.0 | 12.0 | 0.00 | 0.00 | 0.00 | 80 | 1006.3 |
| 20260509134007 | 56 | 213 | 5.0 | 12.0 | 0.00 | 0.00 | 0.00 | 80 | 1006.4 |
| 20260509133521 | 56 | 173 | 3.0 | 9.0 | 0.00 | 0.00 | 0.00 | 82 | 1006.5 |
| 20260509133028 | 55 | 164 | 4.0 | 9.0 | 0.00 | 0.00 | 0.00 | 81 | 1006.5 |
| 20260509132532 | 55 | 126 | 3.0 | 10.0 | 0.00 | 0.00 | 0.00 | 82 | 1006.5 |
| 20260509132011 | 55 | 179 | 2.0 | 10.0 | 0.00 | 0.00 | 0.00 | 82 | 1006.6 |
| 20260509131520 | 55 | 182 | 3.0 | 6.0 | 0.00 | 0.00 | 0.00 | 82 | 1006.7 |
| 20260509131026 | 55 | 190 | 3.0 | 9.0 | 0.00 | 0.00 | 0.00 | 83 | 1006.7 |
| 20260509130536 | 54 | 174 | 3.0 | 9.0 | 0.00 | 0.00 | 0.00 | 83 | 1006.6 |
| 20260509130043 | 54 | 180 | 2.0 | 10.0 | 0.00 | 0.00 | 0.00 | 84 | 1006.7 |
| 20260509125546 | 54 | 178 | 4.0 | 10.0 | 0.00 | 0.00 | 0.00 | 84 | 1006.8 |
| 20260509125023 | 54 | 158 | 4.0 | 10.0 | 0.00 | 0.00 | 0.00 | 84 | 1006.8 |
| 20260509124538 | 54 | 185 | 4.0 | 8.0 | 0.00 | 0.00 | 0.00 | 85 | 1007.0 |
| 20260509124036 | 54 | 195 | 4.0 | 10.0 | 0.00 | 0.00 | 0.00 | 85 | 1007.0 |
| 20260509123542 | 54 | 239 | 5.0 | 10.0 | 0.00 | 0.00 | 0.00 | 85 | 1007.0 |
| 20260509123027 | 53 | 212 | 1.0 | 10.0 | 0.00 | 0.00 | 0.00 | 85 | 1007.0 |
| 20260509122531 | 53 | 141 | 3.0 | 9.0 | 0.00 | 0.00 | 0.00 | 85 | 1007.1 |
| 20260509122042 | 53 | 168 | 2.0 | 9.0 | 0.00 | 0.00 | 0.00 | 85 | 1007.1 |
| 20260509121556 | 53 | 190 | 3.0 | 9.0 | 0.00 | 0.00 | 0.00 | 85 | 1007.2 |
| 20260509121101 | 53 | 196 | 3.0 | 7.0 | 0.00 | 0.00 | 0.00 | 85 | 1007.3 |
| 20260509120508 | 53 | 167 | 3.0 | 10.0 | 0.00 | 0.00 | 0.00 | 86 | 1007.3 |
| 20260509120021 | 53 | 191 | 3.0 | 10.0 | 0.00 | 0.10 | 0.00 | 85 | 1007.3 |
| 20260509115558 | 53 | 193 | 3.0 | 7.0 | 0.00 | 0.10 | 0.00 | 85 | 1007.3 |
| 20260509115001 | 53 | 137 | 3.0 | 7.0 | 0.00 | 0.10 | 0.00 | 86 | 1007.2 |
| 20260509114540 | 53 | 150 | 2.0 | 8.0 | 0.00 | 0.10 | 0.00 | 86 | 1007.3 |
| 20260509114030 | 53 | 209 | 2.0 | 8.0 | 0.00 | 0.10 | 0.00 | 86 | 1007.2 |
| 20260509113536 | 53 | 158 | 2.0 | 8.0 | 0.00 | 0.10 | 0.00 | 86 | 1007.2 |
| 20260509113022 | 53 | 128 | 2.0 | 8.0 | 0.00 | 0.10 | 0.00 | 86 | 1007.2 |
| 20260509112530 | 52 | 141 | 3.0 | 8.0 | 0.00 | 0.10 | 0.00 | 87 | 1007.1 |
| 20260509112041 | 52 | 123 | 2.0 | 11.0 | 0.00 | 0.10 | 0.00 | 87 | 1007.1 |
| 20260509111540 | 52 | 179 | 1.0 | 11.0 | 0.00 | 0.10 | 0.00 | 87 | 1007.1 |
| 20260509111014 | 52 | 150 | 2.0 | 8.0 | 0.00 | 0.10 | 0.00 | 87 | 1007.1 |
| 20260509110530 | 52 | 190 | 1.0 | 6.0 | 0.00 | 0.10 | 0.00 | 87 | 1007.1 |
| 20260509110024 | 52 | 115 | 2.0 | 6.0 | 0.00 | 0.12 | 0.00 | 88 | 1007.1 |
| 20260509105603 | 52 | 177 | 1.0 | 5.0 | 0.00 | 0.12 | 0.00 | 88 | 1007.1 |
| 20260509105502 | 52 | 177 | 1.0 | 5.0 | 0.00 | 0.12 | 0.00 | 88 | 1007.1 |
| 20260509105010 | 52 | 140 | 2.0 | 4.0 | 0.00 | 0.12 | 0.00 | 88 | 1007.1 |
| 20260509104522 | 52 | 141 | 2.0 | 6.0 | 0.00 | 0.12 | 0.00 | 88 | 1007.1 |
| 20260509104025 | 52 | 138 | 2.0 | 6.0 | 0.00 | 0.12 | 0.00 | 88 | 1007.1 |
| 20260509103509 | 52 | 184 | 2.0 | 7.0 | 0.00 | 0.12 | 0.00 | 87 | 1007.3 |
| 20260509103021 | 52 | 195 | 0.0 | 7.0 | 0.00 | 0.12 | 0.00 | 87 | 1007.2 |
| 20260509102559 | 52 | 202 | 2.0 | 6.0 | 0.00 | 0.12 | 0.00 | 87 | 1007.2 |
| 20260509102501 | 52 | 172 | 1.0 | 3.0 | 0.00 | 0.12 | 0.00 | 87 | 1007.2 |
| 20260509102104 | 52 | 180 | 1.0 | 6.0 | 0.00 | 0.12 | 0.00 | 87 | 1007.2 |
| 20260509101550 | 52 | 185 | 1.0 | 6.0 | 0.00 | 0.12 | 0.00 | 87 | 1007.3 |
| 20260509101058 | 52 | 186 | 0.0 | 6.0 | 0.00 | 0.12 | 0.00 | 87 | 1007.3 |
| 20260509100509 | 52 | 182 | 2.0 | 6.0 | 0.00 | 0.12 | 0.00 | 86 | 1007.3 |
| 20260509100026 | 52 | 230 | 1.0 | 6.0 | 0.00 | 0.19 | 0.00 | 86 | 1007.3 |
| 20260509095546 | 52 | 155 | 2.0 | 8.0 | 0.00 | 0.19 | 0.00 | 87 | 1007.2 |
| 20260509095040 | 52 | 184 | 2.0 | 8.0 | 0.00 | 0.19 | 0.00 | 86 | 1007.3 |
| 20260509094531 | 52 | 173 | 2.0 | 6.0 | 0.00 | 0.19 | 0.00 | 86 | 1007.3 |
| 20260509094033 | 52 | 177 | 2.0 | 6.0 | 0.00 | 0.19 | 0.00 | 86 | 1007.3 |
| 20260509093522 | 52 | 165 | 2.0 | 6.0 | 0.00 | 0.19 | 0.00 | 86 | 1007.3 |
| 20260509093102 | 52 | 186 | 2.0 | 5.0 | 0.00 | 0.19 | 0.00 | 86 | 1007.3 |
| 20260509092511 | 52 | 184 | 2.0 | 5.0 | 0.00 | 0.19 | 0.00 | 86 | 1007.3 |
| 20260509092003 | 52 | 187 | 2.0 | 6.0 | 0.00 | 0.19 | 0.00 | 86 | 1007.4 |
| 20260509091513 | 52 | 183 | 1.0 | 6.0 | 0.00 | 0.19 | 0.00 | 86 | 1007.4 |
| 20260509091042 | 52 | 199 | 1.0 | 3.0 | 0.00 | 0.19 | 0.00 | 86 | 1007.3 |
| 20260509090522 | 52 | 204 | 1.0 | 4.0 | 0.00 | 0.19 | 0.00 | 86 | 1007.4 |
| 20260509090047 | 52 | 215 | 1.0 | 4.0 | 0.00 | 0.19 | 0.00 | 86 | 1007.5 |
| 20260509085528 | 52 | 208 | 0.0 | 4.0 | 0.00 | 0.19 | 0.00 | 86 | 1007.5 |
| 20260509085033 | 52 | 207 | 1.0 | 4.0 | 0.00 | 0.19 | 0.00 | 86 | 1007.5 |
| 20260509084546 | 52 | 209 | 1.0 | 3.0 | 0.00 | 0.19 | 0.00 | 86 | 1007.5 |
| 20260509084050 | 52 | 199 | 1.0 | 6.0 | 0.00 | 0.19 | 0.00 | 85 | 1007.6 |
| 20260509083557 | 52 | 194 | 0.0 | 6.0 | 0.00 | 0.19 | 0.00 | 86 | 1007.5 |
| 20260509083023 | 52 | 180 | 0.0 | 5.0 | 0.00 | 0.19 | 0.00 | 86 | 1007.5 |
| 20260509082527 | 52 | 182 | 1.0 | 7.0 | 0.00 | 0.19 | 0.00 | 86 | 1007.5 |
| 20260509082029 | 52 | 175 | 2.0 | 7.0 | 0.00 | 0.19 | 0.00 | 86 | 1007.5 |
| 20260509081528 | 52 | 194 | 1.0 | 5.0 | 0.00 | 0.19 | 0.00 | 86 | 1007.5 |
| 20260509081058 | 52 | 188 | 1.0 | 5.0 | 0.00 | 0.19 | 0.00 | 86 | 1007.5 |
| 20260509080515 | 52 | 159 | 1.0 | 3.0 | 0.00 | 0.19 | 0.00 | 85 | 1007.5 |
| 20260509080015 | 52 | 157 | 0.0 | 5.0 | 0.00 | 0.19 | 0.00 | 85 | 1007.6 |
| 20260509075529 | 52 | 218 | 1.0 | 5.0 | 0.00 | 0.19 | 0.00 | 85 | 1007.6 |
| 20260509075037 | 52 | 181 | 2.0 | 5.0 | 0.00 | 0.19 | 0.00 | 85 | 1007.7 |
| 20260509074541 | 52 | 192 | 0.0 | 4.0 | 0.00 | 0.19 | 0.00 | 85 | 1007.7 |
| 20260509074006 | 52 | 179 | 0.0 | 5.0 | 0.00 | 0.19 | 0.00 | 85 | 1007.8 |
| 20260509073521 | 52 | 179 | 2.0 | 7.0 | 0.00 | 0.19 | 0.00 | 85 | 1007.8 |
| 20260509073115 | 52 | 188 | 2.0 | 9.0 | 0.00 | 0.19 | 0.00 | 85 | 1007.8 |
| 20260509072514 | 52 | 172 | 3.0 | 5.0 | 0.00 | 0.19 | 0.00 | 85 | 1007.8 |
| 20260509072017 | 52 | 202 | 1.0 | 4.0 | 0.00 | 0.19 | 0.00 | 85 | 1007.9 |
| 20260509071522 | 52 | 210 | 1.0 | 4.0 | 0.00 | 0.19 | 0.00 | 85 | 1008.0 |
| 20260509071028 | 52 | 210 | 1.0 | 4.0 | 0.00 | 0.19 | 0.00 | 85 | 1008.0 |
| 20260509070509 | 52 | 139 | 1.0 | 7.0 | 0.00 | 0.19 | 0.00 | 85 | 1007.9 |
| 20260509065515 | 52 | 148 | 2.0 | 5.0 | 0.00 | 0.19 | 0.00 | 84 | 1007.9 |
| 20260509065005 | 52 | 189 | 2.0 | 5.0 | 0.00 | 0.19 | 0.00 | 84 | 1008.0 |
| 20260509064513 | 52 | 135 | 2.0 | 6.0 | 0.00 | 0.19 | 0.00 | 84 | 1008.1 |
| 20260509064031 | 52 | 148 | 2.0 | 6.0 | 0.00 | 0.19 | 0.00 | 84 | 1008.2 |
| 20260509063534 | 52 | 178 | 2.0 | 6.0 | 0.00 | 0.19 | 0.00 | 84 | 1008.2 |
| 20260509063048 | 52 | 160 | 2.0 | 6.0 | 0.00 | 0.19 | 0.00 | 83 | 1008.3 |
| 20260509062545 | 52 | 180 | 1.0 | 7.0 | 0.00 | 0.19 | 0.00 | 83 | 1008.3 |
| 20260509062026 | 52 | 186 | 1.0 | 5.0 | 0.00 | 0.19 | 0.00 | 83 | 1008.3 |
| 20260509061539 | 52 | 186 | 2.0 | 6.0 | 0.00 | 0.19 | 0.00 | 83 | 1008.4 |
| 20260509061044 | 52 | 190 | 2.0 | 6.0 | 0.00 | 0.19 | 0.00 | 83 | 1008.5 |
| 20260509060551 | 52 | 174 | 1.0 | 6.0 | 0.00 | 0.19 | 0.00 | 83 | 1008.5 |
| 20260509060002 | 52 | 140 | 2.0 | 8.0 | 0.00 | 0.19 | 0.00 | 83 | 1008.7 |
| 20260509055547 | 52 | 186 | 3.0 | 8.0 | 0.00 | 0.19 | 0.00 | 83 | 1008.8 |
| 20260509055038 | 52 | 202 | 3.0 | 10.0 | 0.00 | 0.19 | 0.00 | 83 | 1008.8 |
| 20260509054530 | 52 | 180 | 4.0 | 10.0 | 0.00 | 0.19 | 0.00 | 83 | 1009.0 |
| 20260509054020 | 52 | 189 | 2.0 | 8.0 | 0.00 | 0.19 | 0.00 | 83 | 1009.0 |
| 20260509053523 | 52 | 188 | 0.0 | 9.0 | 0.00 | 0.19 | 0.00 | 83 | 1009.0 |
| 20260509053033 | 52 | 165 | 2.0 | 9.0 | 0.00 | 0.19 | 0.00 | 83 | 1009.0 |
| 20260509052513 | 52 | 175 | 2.0 | 7.0 | 0.00 | 0.19 | 0.00 | 83 | 1009.0 |
| 20260509052024 | 52 | 175 | 3.0 | 9.0 | 0.00 | 0.19 | 0.00 | 83 | 1009.0 |
| 20260509051530 | 52 | 150 | 3.0 | 9.0 | 0.00 | 0.19 | 0.00 | 83 | 1009.1 |
| 20260509051039 | 52 | 202 | 2.0 | 7.0 | 0.00 | 0.19 | 0.00 | 82 | 1009.2 |
| 20260509050545 | 52 | 207 | 1.0 | 9.0 | 0.00 | 0.19 | 0.00 | 83 | 1009.3 |
| 20260509050057 | 52 | 183 | 3.0 | 9.0 | 0.00 | 0.19 | 0.00 | 83 | 1009.4 |
| 20260509045531 | 52 | 184 | 2.0 | 8.0 | 0.00 | 0.19 | 0.00 | 82 | 1009.4 |
| 20260509045044 | 52 | 191 | 3.0 | 8.0 | 0.00 | 0.19 | 0.00 | 82 | 1009.3 |
| 20260509044550 | 52 | 190 | 2.0 | 6.0 | 0.00 | 0.19 | 0.00 | 82 | 1009.3 |
| 20260509044057 | 52 | 184 | 0.0 | 3.0 | 0.00 | 0.19 | 0.00 | 81 | 1009.4 |
| 20260509043542 | 52 | 184 | 0.0 | 3.0 | 0.00 | 0.19 | 0.00 | 80 | 1009.5 |
| 20260509043050 | 52 | 184 | 0.0 | 5.0 | 0.00 | 0.19 | 0.00 | 80 | 1009.6 |
| 20260509042558 | 52 | 184 | 2.0 | 6.0 | 0.00 | 0.19 | 0.00 | 80 | 1009.7 |
| 20260509042503 | 52 | 186 | 0.0 | 6.0 | 0.00 | 0.19 | 0.00 | 80 | 1009.7 |
| 20260509042002 | 52 | 186 | 2.0 | 6.0 | 0.00 | 0.19 | 0.00 | 79 | 1009.8 |
| 20260509041519 | 52 | 193 | 1.0 | 6.0 | 0.00 | 0.19 | 0.00 | 79 | 1009.8 |
| 20260509041053 | 52 | 180 | 1.0 | 6.0 | 0.00 | 0.19 | 0.00 | 79 | 1009.8 |
| 20260509040603 | 52 | 182 | 3.0 | 6.0 | 0.00 | 0.19 | 0.00 | 78 | 1009.9 |
| 20260509040502 | 52 | 183 | 2.0 | 6.0 | 0.00 | 0.19 | 0.00 | 78 | 1009.9 |
| 20260509040125 | 52 | 188 | 1.0 | 7.0 | 0.00 | 0.19 | 0.19 | 78 | 1009.9 |
| 20260509035518 | 52 | 182 | 2.0 | 7.0 | 0.00 | 0.19 | 0.19 | 77 | 1009.8 |
| 20260509035057 | 52 | 153 | 2.0 | 5.0 | 0.00 | 0.19 | 0.19 | 76 | 1009.9 |
| 20260509034509 | 52 | 188 | 2.0 | 5.0 | 0.00 | 0.19 | 0.19 | 75 | 1009.9 |
| 20260509034017 | 52 | 190 | 1.0 | 4.0 | 0.00 | 0.19 | 0.19 | 74 | 1009.9 |
| 20260509033559 | 52 | 180 | 1.0 | 3.0 | 0.00 | 0.19 | 0.19 | 73 | 1009.9 |
| 20260509033507 | 52 | 180 | 1.0 | 3.0 | 0.00 | 0.19 | 0.19 | 73 | 1010.0 |
| 20260509033025 | 52 | 206 | 1.0 | 3.0 | 0.00 | 0.19 | 0.19 | 73 | 1010.0 |
| 20260509032526 | 52 | 223 | 1.0 | 2.0 | 0.00 | 0.19 | 0.19 | 71 | 1010.0 |
| 20260509032003 | 52 | 223 | 1.0 | 2.0 | 0.00 | 0.19 | 0.19 | 71 | 1010.1 |
| 20260509031518 | 52 | 223 | 1.0 | 2.0 | 0.00 | 0.19 | 0.19 | 70 | 1010.2 |
| 20260509031053 | 52 | 223 | 0.0 | 2.0 | 0.00 | 0.19 | 0.19 | 69 | 1010.2 |
| 20260509030541 | 52 | 223 | 0.0 | 2.0 | 0.00 | 0.19 | 0.19 | 69 | 1010.3 |
| 20260509030048 | 52 | 223 | 0.0 | 2.0 | 0.00 | 0.19 | 0.19 | 68 | 1010.4 |
| 20260509025537 | 52 | 223 | 1.0 | 3.0 | 0.00 | 0.19 | 0.19 | 68 | 1010.5 |
| 20260509025011 | 52 | 223 | 1.0 | 2.0 | 0.00 | 0.19 | 0.19 | 68 | 1010.4 |
| 20260509024507 | 52 | 223 | 1.0 | 2.0 | 0.00 | 0.19 | 0.19 | 67 | 1010.4 |
| 20260509024011 | 52 | 223 | 0.0 | 3.0 | 0.00 | 0.19 | 0.19 | 67 | 1010.6 |
| 20260509023552 | 52 | 223 | 0.0 | 3.0 | 0.00 | 0.19 | 0.19 | 66 | 1010.6 |
| 20260509023005 | 52 | 223 | 1.0 | 2.0 | 0.00 | 0.19 | 0.19 | 66 | 1010.6 |
| 20260509022521 | 52 | 223 | 1.0 | 2.0 | 0.00 | 0.19 | 0.19 | 66 | 1010.6 |
| 20260509022027 | 52 | 223 | 1.0 | 2.0 | 0.00 | 0.19 | 0.19 | 66 | 1010.6 |
| 20260509021528 | 52 | 223 | 0.0 | 2.0 | 0.00 | 0.19 | 0.19 | 65 | 1010.6 |
| 20260509021035 | 52 | 223 | 0.0 | 3.0 | 0.00 | 0.19 | 0.19 | 65 | 1010.6 |
| 20260509020538 | 51 | 223 | 1.0 | 3.0 | 0.00 | 0.19 | 0.19 | 66 | 1010.6 |
| 20260509020039 | 51 | 223 | 1.0 | 2.0 | 0.00 | 0.19 | 0.19 | 65 | 1010.6 |
| 20260509015508 | 51 | 223 | 1.0 | 2.0 | 0.00 | 0.19 | 0.19 | 65 | 1010.5 |
| 20260509015025 | 51 | 223 | 1.0 | 2.0 | 0.00 | 0.19 | 0.19 | 65 | 1010.5 |
| 20260509014529 | 51 | 223 | 0.0 | 2.0 | 0.00 | 0.19 | 0.19 | 64 | 1010.5 |
| 20260509014031 | 51 | 224 | 1.0 | 2.0 | 0.00 | 0.19 | 0.19 | 65 | 1010.5 |
| 20260509013539 | 51 | 224 | 0.0 | 2.0 | 0.00 | 0.19 | 0.19 | 63 | 1010.4 |
| 20260509013028 | 51 | 224 | 1.0 | 2.0 | 0.00 | 0.19 | 0.19 | 63 | 1010.4 |
| 20260509012538 | 51 | 224 | 0.0 | 1.0 | 0.00 | 0.19 | 0.19 | 65 | 1010.4 |
| 20260509012017 | 51 | 223 | 0.0 | 2.0 | 0.00 | 0.19 | 0.19 | 65 | 1010.4 |
| 20260509011507 | 50 | 224 | 0.0 | 2.0 | 0.00 | 0.19 | 0.19 | 64 | 1010.3 |
| 20260509011010 | 50 | 224 | 0.0 | 2.0 | 0.00 | 0.19 | 0.19 | 64 | 1010.4 |
| 20260509010519 | 50 | 224 | 1.0 | 2.0 | 0.00 | 0.19 | 0.19 | 67 | 1010.3 |
| 20260509010013 | 50 | 224 | 0.0 | 2.0 | 0.00 | 0.19 | 0.19 | 67 | 1010.3 |
| 20260509005513 | 50 | 224 | 0.0 | 1.0 | 0.00 | 0.19 | 0.19 | 64 | 1010.3 |
| 20260509005017 | 50 | 224 | 0.0 | 2.0 | 0.00 | 0.19 | 0.19 | 63 | 1010.2 |
| 20260509004523 | 51 | 224 | 0.0 | 2.0 | 0.00 | 0.19 | 0.19 | 63 | 1010.1 |
| 20260509004033 | 51 | 224 | 0.0 | 2.0 | 0.00 | 0.19 | 0.19 | 62 | 1010.2 |
| 20260509003539 | 51 | 224 | 0.0 | 2.0 | 0.00 | 0.19 | 0.19 | 64 | 1010.2 |
| 20260509003053 | 51 | 224 | 0.0 | 1.0 | 0.00 | 0.19 | 0.19 | 57 | 1010.1 |
| 20260509002503 | 51 | 224 | 0.0 | 0.0 | 0.00 | 0.19 | 0.19 | 58 | 1010.1 |
| 20260509002017 | 52 | 224 | 0.0 | 2.0 | 0.00 | 0.19 | 0.19 | 58 | 1010.0 |
| 20260509001520 | 52 | 224 | 0.0 | 2.0 | 0.00 | 0.19 | 0.19 | 58 | 1009.9 |
| 20260509001033 | 52 | 224 | 0.0 | 2.0 | 0.00 | 0.19 | 0.19 | 57 | 1010.1 |
| 20260509000541 | 53 | 224 | 0.0 | 1.0 | 0.00 | 0.19 | 0.19 | 59 | 1010.0 |
| 20260509000038 | 53 | 224 | 0.0 | 1.0 | 0.00 | 0.19 | 0.19 | 58 | 1010.0 |
| 20260508235527 | 53 | 224 | 0.0 | 1.0 | 0.00 | 0.19 | 0.19 | 55 | 1010.0 |
| 20260508235035 | 54 | 224 | 0.0 | 0.0 | 0.00 | 0.19 | 0.19 | 53 | 1010.0 |
| 20260508234541 | 54 | 224 | 0.0 | 1.0 | 0.00 | 0.19 | 0.19 | 51 | 1010.1 |
| 20260508234051 | 55 | 224 | 0.0 | 1.0 | 0.00 | 0.19 | 0.19 | 51 | 1010.1 |
| 20260508233557 | 55 | 224 | 0.0 | 2.0 | 0.00 | 0.19 | 0.19 | 49 | 1010.1 |
| 20260508233501 | 55 | 224 | 0.0 | 2.0 | 0.00 | 0.19 | 0.19 | 49 | 1010.1 |
| 20260508233043 | 55 | 224 | 0.0 | 2.0 | 0.00 | 0.19 | 0.19 | 48 | 1010.0 |
| 20260508232550 | 55 | 224 | 0.0 | 3.0 | 0.00 | 0.19 | 0.19 | 47 | 1010.0 |
| 20260508232042 | 56 | 224 | 1.0 | 4.0 | 0.00 | 0.19 | 0.19 | 45 | 1010.1 |
| 20260508231557 | 56 | 224 | 1.0 | 4.0 | 0.00 | 0.19 | 0.19 | 46 | 1010.0 |
| 20260508231101 | 56 | 246 | 1.0 | 4.0 | 0.00 | 0.19 | 0.19 | 45 | 1010.0 |
| 20260508230506 | 55 | 250 | 1.0 | 4.0 | 0.00 | 0.19 | 0.19 | 43 | 1010.1 |
| 20260508230053 | 55 | 250 | 1.0 | 4.0 | 0.00 | 0.19 | 0.19 | 46 | 1010.1 |
| 20260508225505 | 56 | 221 | 2.0 | 5.0 | 0.00 | 0.19 | 0.19 | 42 | 1010.1 |
| 20260508225053 | 56 | 238 | 2.0 | 5.0 | 0.00 | 0.19 | 0.19 | 43 | 1010.1 |
| 20260508224611 | 56 | 275 | 2.0 | 7.0 | 0.00 | 0.19 | 0.19 | 44 | 1010.2 |
| 20260508224502 | 56 | 263 | 2.0 | 7.0 | 0.00 | 0.19 | 0.19 | 44 | 1010.2 |
| 20260508224018 | 56 | 250 | 3.0 | 7.0 | 0.00 | 0.19 | 0.19 | 42 | 1010.1 |
| 20260508223522 | 56 | 257 | 3.0 | 7.0 | 0.00 | 0.19 | 0.19 | 43 | 1010.2 |
| 20260508223031 | 56 | 237 | 3.0 | 8.0 | 0.00 | 0.19 | 0.19 | 43 | 1010.2 |
| 20260508222538 | 56 | 250 | 2.0 | 8.0 | 0.00 | 0.19 | 0.19 | 43 | 1010.2 |
| 20260508222042 | 56 | 229 | 2.0 | 6.0 | 0.00 | 0.19 | 0.19 | 44 | 1010.2 |
| 20260508221544 | 56 | 205 | 2.0 | 6.0 | 0.00 | 0.19 | 0.19 | 45 | 1010.2 |
| 20260508221039 | 56 | 252 | 2.0 | 5.0 | 0.00 | 0.19 | 0.19 | 48 | 1010.3 |
| 20260508220546 | 56 | 241 | 2.0 | 8.0 | 0.00 | 0.19 | 0.19 | 47 | 1010.3 |
| 20260508220034 | 56 | 266 | 2.0 | 8.0 | 0.00 | 0.19 | 0.19 | 47 | 1010.5 |
| 20260508215515 | 56 | 242 | 1.0 | 6.0 | 0.00 | 0.19 | 0.19 | 47 | 1010.5 |
| 20260508215003 | 56 | 257 | 3.0 | 6.0 | 0.00 | 0.19 | 0.19 | 48 | 1010.3 |
| 20260508214527 | 56 | 250 | 2.0 | 5.0 | 0.00 | 0.19 | 0.19 | 45 | 1010.4 |
| 20260508214018 | 56 | 246 | 3.0 | 5.0 | 0.00 | 0.19 | 0.19 | 45 | 1010.4 |
| 20260508213520 | 56 | 252 | 1.0 | 5.0 | 0.00 | 0.19 | 0.19 | 47 | 1010.4 |
| 20260508213034 | 56 | 242 | 2.0 | 4.0 | 0.00 | 0.19 | 0.19 | 43 | 1010.4 |
| 20260508212533 | 56 | 248 | 2.0 | 4.0 | 0.00 | 0.19 | 0.19 | 45 | 1010.4 |
| 20260508212023 | 56 | 251 | 2.0 | 4.0 | 0.00 | 0.19 | 0.19 | 41 | 1010.4 |
| 20260508211527 | 56 | 249 | 1.0 | 4.0 | 0.00 | 0.19 | 0.19 | 44 | 1010.5 |
| 20260508211036 | 56 | 250 | 1.0 | 3.0 | 0.00 | 0.19 | 0.19 | 42 | 1010.5 |
| 20260508210544 | 56 | 240 | 1.0 | 5.0 | 0.00 | 0.19 | 0.19 | 42 | 1010.5 |
| 20260508210056 | 55 | 333 | 1.0 | 5.0 | 0.00 | 0.19 | 0.19 | 38 | 1010.5 |
| 20260508205506 | 56 | 232 | 1.0 | 5.0 | 0.00 | 0.19 | 0.19 | 43 | 1010.6 |
| 20260508205019 | 55 | 251 | 3.0 | 6.0 | 0.00 | 0.19 | 0.19 | 39 | 1010.6 |
| 20260508204529 | 55 | 257 | 3.0 | 8.0 | 0.00 | 0.19 | 0.19 | 37 | 1010.6 |
| 20260508204022 | 56 | 246 | 1.0 | 5.0 | 0.00 | 0.19 | 0.19 | 38 | 1010.5 |
| 20260508203524 | 56 | 249 | 2.0 | 4.0 | 0.00 | 0.19 | 0.19 | 39 | 1010.6 |
| 20260508203036 | 56 | 246 | 1.0 | 4.0 | 0.00 | 0.19 | 0.19 | 46 | 1010.7 |
| 20260508202539 | 55 | 245 | 2.0 | 4.0 | 0.00 | 0.19 | 0.19 | 41 | 1010.8 |
| 20260508202042 | 55 | 331 | 1.0 | 5.0 | 0.00 | 0.19 | 0.19 | 47 | 1010.8 |
| 20260508201551 | 55 | 333 | 1.0 | 4.0 | 0.00 | 0.19 | 0.19 | 42 | 1010.9 |
| 20260508201054 | 55 | 231 | 2.0 | 4.0 | 0.00 | 0.19 | 0.19 | 41 | 1010.9 |
| 20260508200603 | 55 | 247 | 1.0 | 5.0 | 0.00 | 0.19 | 0.19 | 44 | 1010.9 |
| 20260508200502 | 55 | 277 | 1.0 | 5.0 | 0.00 | 0.19 | 0.19 | 47 | 1010.9 |
| 20260508200108 | 55 | 319 | 2.0 | 5.0 | 0.00 | 0.19 | 0.19 | 46 | 1011.0 |
| 20260508195558 | 55 | 312 | 1.0 | 5.0 | 0.00 | 0.19 | 0.19 | 48 | 1011.1 |
| 20260508195044 | 54 | 336 | 2.0 | 5.0 | 0.00 | 0.19 | 0.19 | 44 | 1011.1 |
| 20260508194550 | 54 | 294 | 2.0 | 5.0 | 0.00 | 0.19 | 0.19 | 45 | 1011.2 |
| 20260508194056 | 54 | 263 | 2.0 | 5.0 | 0.00 | 0.19 | 0.19 | 47 | 1011.3 |
| 20260508193508 | 54 | 259 | 2.0 | 5.0 | 0.00 | 0.19 | 0.19 | 46 | 1011.3 |
| 20260508193026 | 54 | 284 | 1.0 | 6.0 | 0.00 | 0.19 | 0.19 | 45 | 1011.3 |
| 20260508192515 | 54 | 236 | 2.0 | 4.0 | 0.00 | 0.19 | 0.19 | 44 | 1011.4 |
| 20260508192016 | 54 | 269 | 2.0 | 4.0 | 0.00 | 0.19 | 0.19 | 45 | 1011.5 |
| 20260508191559 | 54 | 283 | 2.0 | 7.0 | 0.00 | 0.19 | 0.19 | 48 | 1011.6 |
| 20260508191006 | 53 | 248 | 3.0 | 8.0 | 0.00 | 0.19 | 0.19 | 47 | 1011.7 |
| 20260508190521 | 53 | 269 | 3.0 | 8.0 | 0.00 | 0.19 | 0.19 | 47 | 1011.7 |
| 20260508190037 | 53 | 269 | 3.0 | 7.0 | 0.00 | 0.19 | 0.19 | 51 | 1011.7 |
| 20260508185544 | 54 | 236 | 2.0 | 7.0 | 0.00 | 0.19 | 0.19 | 49 | 1011.8 |
| 20260508185054 | 54 | 263 | 1.0 | 6.0 | 0.00 | 0.19 | 0.19 | 52 | 1011.8 |
| 20260508184559 | 54 | 329 | 3.0 | 9.0 | 0.00 | 0.19 | 0.19 | 53 | 1011.9 |
| 20260508184003 | 54 | 252 | 2.0 | 9.0 | 0.00 | 0.19 | 0.19 | 59 | 1011.9 |
| 20260508183518 | 54 | 232 | 2.0 | 7.0 | 0.00 | 0.19 | 0.19 | 52 | 1012.0 |
| 20260508183012 | 53 | 257 | 2.0 | 6.0 | 0.00 | 0.19 | 0.19 | 59 | 1012.0 |
| 20260508182523 | 53 | 296 | 2.0 | 7.0 | 0.00 | 0.19 | 0.19 | 59 | 1011.9 |
| 20260508182017 | 53 | 316 | 2.0 | 7.0 | 0.00 | 0.19 | 0.19 | 56 | 1012.0 |
| 20260508181613 | 53 | 272 | 1.0 | 8.0 | 0.00 | 0.19 | 0.19 | 58 | 1012.0 |
| 20260508181102 | 53 | 254 | 3.0 | 8.0 | 0.00 | 0.19 | 0.19 | 56 | 1012.2 |
| 20260508180550 | 53 | 244 | 2.0 | 7.0 | 0.00 | 0.19 | 0.19 | 60 | 1012.2 |
| 20260508180103 | 52 | 286 | 3.0 | 9.0 | 0.00 | 0.19 | 0.19 | 60 | 1012.1 |
| 20260508175508 | 52 | 258 | 2.0 | 7.0 | 0.00 | 0.19 | 0.19 | 60 | 1012.2 |
| 20260508175102 | 52 | 256 | 2.0 | 7.0 | 0.00 | 0.19 | 0.19 | 62 | 1012.2 |
| 20260508174514 | 53 | 300 | 2.0 | 10.0 | 0.00 | 0.19 | 0.19 | 62 | 1012.3 |
| 20260508174024 | 53 | 259 | 3.0 | 10.0 | 0.00 | 0.19 | 0.19 | 60 | 1012.3 |
| 20260508173533 | 53 | 242 | 2.0 | 7.0 | 0.00 | 0.19 | 0.19 | 59 | 1012.3 |
| 20260508173023 | 53 | 276 | 1.0 | 7.0 | 0.00 | 0.19 | 0.19 | 66 | 1012.3 |
| 20260508172518 | 53 | 236 | 2.0 | 5.0 | 0.00 | 0.19 | 0.19 | 65 | 1012.3 |
| 20260508172032 | 53 | 248 | 1.0 | 6.0 | 0.00 | 0.19 | 0.19 | 63 | 1012.3 |
| 20260508171547 | 53 | 277 | 2.0 | 5.0 | 0.00 | 0.19 | 0.19 | 67 | 1012.4 |
| 20260508171026 | 53 | 342 | 2.0 | 5.0 | 0.00 | 0.19 | 0.19 | 65 | 1012.5 |
| 20260508170534 | 53 | 275 | 1.0 | 5.0 | 0.00 | 0.19 | 0.19 | 67 | 1012.6 |
| 20260508170043 | 52 | 279 | 1.0 | 8.0 | 0.00 | 0.19 | 0.19 | 67 | 1012.6 |
| 20260508165525 | 52 | 327 | 2.0 | 8.0 | 0.00 | 0.19 | 0.19 | 66 | 1012.6 |
| 20260508165032 | 52 | 267 | 1.0 | 7.0 | 0.00 | 0.19 | 0.19 | 67 | 1012.7 |
| 20260508164540 | 51 | 338 | 2.0 | 5.0 | 0.00 | 0.19 | 0.19 | 66 | 1012.6 |
| 20260508164050 | 51 | 232 | 2.0 | 7.0 | 0.00 | 0.19 | 0.19 | 67 | 1012.7 |
| 20260508163553 | 52 | 289 | 2.0 | 7.0 | 0.00 | 0.19 | 0.19 | 67 | 1012.7 |
| 20260508163100 | 51 | 279 | 2.0 | 7.0 | 0.00 | 0.19 | 0.19 | 69 | 1012.8 |
| 20260508162508 | 51 | 307 | 1.0 | 8.0 | 0.00 | 0.19 | 0.19 | 69 | 1012.9 |
| 20260508162011 | 51 | 309 | 2.0 | 8.0 | 0.00 | 0.19 | 0.19 | 69 | 1012.9 |
| 20260508161510 | 52 | 336 | 2.0 | 8.0 | 0.00 | 0.19 | 0.19 | 70 | 1012.9 |
| 20260508161006 | 51 | 328 | 1.0 | 8.0 | 0.00 | 0.19 | 0.19 | 69 | 1013.0 |